Regional Weather Roundup
Issued by NWS

Home | Current Version | Previous Version | Graphics & Text | Print | Product List | Glossary On
Versions: 1 2 3 4 5 6 7 8 9 10 11 12 13 14 15 16 17 18 19 20 21 22 23 24 25 26 27 28 29 30 31 32 33 34 35 36 37 38 39 40 41 42 43 44 45 46 47 48 49 50
000
ASUS43 KFSD 291810
RWRSD

WEATHER ROUNDUP FOR SOUTH DAKOTA
NATIONAL WEATHER SERVICE SIOUX FALLS SD
100 PM CDT WED MAR 29 2017

NOTE: "FAIR" INDICATES FEW OR NO CLOUDS BELOW 12,000 FEET WITH NO
SIGNIFICANT WEATHER AND/OR OBSTRUCTIONS TO VISIBILITY.


SDZ001>005-009-010-012>017-291900-
NORTHWEST AND NORTH CENTRAL SOUTH DAKOTA

CITY           SKY/WX    TMP DP  RH WIND       PRES   REMARKS
FAITH            N/A     50  42  74 MISG      30.08F
MOBRIDGE       SUNNY     60  37  42 SE10      30.06F
$$

SDZ012>016-024>037-041>051-057-063-072>074-291900-
SOUTHWEST AND SOUTH CENTRAL SOUTH DAKOTA

CITY           SKY/WX    TMP DP  RH WIND       PRES   REMARKS
RAPID CTY ARPT PTSUNNY   51  42  71 VRB6      30.08F
PIERRE         MOSUNNY   56  36  47 E6        30.07F
CUSTER         CLOUDY    45  34  65 SW3       30.05F
ELLSWORTH AFB  CLOUDY    50  45  81 NE5       30.07
PHILIP         CLOUDY    53  43  68 SE3       30.09F
PINE RIDGE     CLOUDY    50  40  68 CALM      30.08F
SPEARFISH      FAIR      52  34  50 VRB3G13   30.06F
WINNER         MOCLDY    54  43  66 E9        30.08F
$$

SDZ004>011-016>023-039-040-291900-
NORTHEAST SOUTH DAKOTA

CITY           SKY/WX    TMP DP  RH WIND       PRES   REMARKS
ABERDEEN       MOSUNNY   59  33  37 SE12      30.11F
WATERTOWN      PTSUNNY   53  38  56 SE13      30.12F
BROOKINGS      MOSUNNY   53  35  50 E15G22    30.11F
SISSETON         N/A     55  40  56 SE8       30.13F
$$

SDZ017-020-022-023-036>040-048>070-291900-
SOUTHEAST SOUTH DAKOTA

CITY           SKY/WX    TMP DP  RH WIND       PRES   REMARKS
SIOUX FALLS    LGT RAIN  47  41  80 E18       30.12F
HURON          CLOUDY    55  38  52 SE12G18   30.11F
CHAMBERLAIN    PTSUNNY   56  42  58 E10       30.08F
MITCHELL       CLOUDY    53  38  56 E15G22    30.12F
YANKTON        CLOUDY    46  39  76 NE21      30.07F
$$

ABBREVIATIONS USED IN REMARKS
   TC - TEMPERATURE IN CELSIUS
  WCI - WIND CHILL INDEX
   HX - HEAT INDEX
  VSB - VISIBILITY





USA.gov is the U.S. government's official web portal to all federal, state and local government web resources and services.